Regional Weather Roundup
Issued by NWS

Home | Current Version | Previous Version | Graphics & Text | Print | Product List | Glossary Off
Versions: 1 2 3 4 5 6 7 8 9 10 11 12 13 14 15 16 17 18 19 20 21 22 23 24 25 26 27 28 29 30 31 32 33 34 35 36 37 38 39 40 41 42 43 44 45 46 47 48 49 50

419
ASUS43 KMPX 240010
RWRMN
WEATHER ROUNDUP FOR MINNESOTA
NATIONAL WEATHER SERVICE TWIN CITIES/CHANHASSEN MN
600 PM CST FRI FEB 23 2018


NOTE: "FAIR" INDICATES FEW OR NO CLOUDS BELOW 12,000 FEET WITH NO
SIGNIFICANT WEATHER AND/OR OBSTRUCTIONS TO VISIBILITY. N/A MEANS
CURRENT SKY AND/OR WEATHER CONDITIONS ARE NOT AVAILABLE.

MNZ060>063-068>070-240100-
   Twin Cities Metro

CITY           SKY/WX    TMP DP  RH WIND       PRES   REMARKS
TWIN CITIES    FAIR      27  21  78 SW10      30.26R WCI  17
6HR MIN TEMP:  27; 6HR MAX TEMP:  32;

ST PAUL        FAIR      27  20  75 SW12      30.27R WCI  17
CRYSTAL        FAIR      28  20  71 SW9       30.24R WCI  19
BLAINE         CLEAR     30  21  69 W7        30.23R WCI  23
LAKEVILLE      FAIR      19  18  93 SW3       30.27R
EDEN PRAIRIE   FAIR      24  18  77 SW8       30.26R WCI  15
6HR MIN TEMP:  24; 6HR MAX TEMP:  30;

SOUTH ST PAUL  FAIR      27  20  76 SW10      30.27R WCI  17
LAKE ELMO      FAIR      28  23  80 SW9       30.26R WCI  20
$$
MNZ001>005-007-008-013>017-022>024-027-028-240100-
   Northwest Minnesota

CITY           SKY/WX    TMP DP  RH WIND       PRES   REMARKS
BEMIDJI        FAIR      16   6  65 SW8       30.17R WCI   5
HALLOCK        FAIR      12   9  85 SW7       30.18S WCI   2
ROSEAU         FAIR      14   7  73 SW8       30.15S WCI   3
WARROAD        FAIR      14   7  73 SW9       30.14R WCI   2
THIEF RVR FALL FAIR      10   5  80 SW8       30.20R WCI  -2
CROOKSTON      FAIR       9   3  78 SW9       30.23R WCI  -5
FOSSTON        FAIR       7   0  72 SW10      30.20R WCI  -8
DETROIT LAKES  FAIR      14   9  79 CALM      30.23R
MOORHEAD       FAIR       9   3  78 SW7       30.27R WCI  -3
PARK RAPIDS    FAIR      16   5  62 W15       30.17R WCI   1
MAHNOMEN       FAIR       3  -2  79 SW9       30.21S WCI -12
$$
MNZ006-009>011-018-025>026-240100-
   North Central Minnesota

CITY           SKY/WX    TMP DP  RH WIND       PRES   REMARKS
BAUDETTE       FAIR      19   3  49 W9        30.12R WCI   8
FLAG ISLAND    FAIR      19   1  45 W9        30.10R WCI   9
INTL FALLS     FAIR      25  11  55 W6        30.09R WCI  18
6HR MIN TEMP:  25; 6HR MAX TEMP:  29;

WASKISH        FAIR      12   7  79 SW9       30.16R WCI   0
LONGVILLE      FAIR      27  19  74 W5        30.15R WCI  21
GRAND RAPIDS   FAIR      24  17  74 CALM      30.15R
CRANE LAKE     MOCLDY    25  21  86 CALM      30.12R
ORR            FAIR      25  18  74 CALM      30.08R
COOK             N/A     27  21  80 CALM      30.11R
WALKER         FAIR      21   5  49 NW7       30.16R WCI  13
$$
MNZ012-019>021-037-240100-
   Northeast Minnesota

CITY           SKY/WX    TMP DP  RH WIND       PRES   REMARKS
DULUTH         CLOUDY    30  21  69 W10       30.12R WCI  21
6HR MIN TEMP:  28; 6HR MAX TEMP:  32;

ELY            CLOUDY    27  21  80 W7        30.10R WCI  19
HIBBING        CLOUDY    26  20  77 W6        30.12R WCI  19
EVELETH        FAIR      27  21  80 SW5       30.12R WCI  21
DULUTH HARBOR  CLOUDY    34  27  75 W7        30.17R WCI  28
TWO HARBORS    CLOUDY    34  25  69 W8        30.11R WCI  27
SILVER BAY     CLOUDY    30  21  69 W7        30.10R WCI  23
GRAND MARAIS     N/A     30  21  69 VRB5      30.12R WCI  25
G MARAIS ARPRT CLOUDY    23  16  74 NW3       30.05R
$$
MNZ029>031-032-039>041-046>048-054>057-064-240100-
   West Central Minnesota

CITY           SKY/WX    TMP DP  RH WIND       PRES   REMARKS
FERGUS FALLS   FAIR      10   3  72 NW6       30.26R WCI   1
WHEATON        CLEAR     14   7  73 W5        30.30R WCI   6
MORRIS         CLEAR     12   7  79 W5        30.27R WCI   4
ALEXANDRIA     FAIR      15   9  76 W8        30.23R WCI   4
ELBOW LAKE     FAIR      10   6  82 SW5       30.26R WCI   2
WADENA         FAIR      16   9  73 W10       30.21R WCI   3
GLENWOOD       FAIR      14  10  85 W13       30.25R WCI   0
APPLETON       CLEAR     19   9  63 NW5       30.29R WCI  13
BENSON         CLEAR     12   9  85 W5        30.30R WCI   4
ORTONVILLE     CLEAR     14   7  73 CALM      30.29R
MADISON        CLEAR     21  16  79 W5        30.30R WCI  15
WILLMAR        FAIR      18  12  79 W8        30.30R WCI   7
$$
MNZ033>034-036-042>043-049>051-058-059-240100-
   Central Minnesota

CITY           SKY/WX    TMP DP  RH WIND       PRES   REMARKS
ST CLOUD       FAIR      23  17  78 SW10      30.23R WCI  12
6HR MIN TEMP:  23; 6HR MAX TEMP:  31;

SAUK CENTRE    FAIR      16  12  84 W8        30.24R WCI   6
PAYNESVILLE    FAIR      19  16  89 W10       30.26R WCI   7
AITKIN         CLOUDY    28  19  69 W6        30.16R WCI  22
PINE RIVER     FAIR      23  16  74 W5        30.20R WCI  17
BRAINERD       FAIR      26  16  65 W13       30.19R WCI  15
STAPLES        FAIR      16  10  79 W8        30.21R WCI   5
LONG PRAIRIE   FAIR      19  12  73 S7        30.23R WCI  10
LITTLE FALLS   FAIR      27  14  59 SW7       30.22R WCI  19
LITCHFIELD     FAIR      21  18  86 W6        30.27R WCI  14
BUFFALO        FAIR      26  19  76 W8        30.26R WCI  17
MAPLE LAKE     FAIR      27  21  78 SW6       30.25R WCI  20
HUTCHINSON     FAIR      19  17  88 W10       30.28R WCI   8
$$
MNZ037-044-045-052-053-240100-
   East Central Minnesota

CITY           SKY/WX    TMP DP  RH WIND       PRES   REMARKS
PRINCETON      FAIR      28  21  74 SW3       30.23R
CAMBRIDGE        N/A     32  21  64 SW5       30.23R WCI  27
RUSH CITY      FAIR      29  21  70 SW5       30.21R WCI  24
MOOSE LAKE     CLOUDY    32  21  64 W3        30.15R
HINCKLEY       MOCLDY    30  21  69 W5        30.18R WCI  25
CLOQUET        CLOUDY    30  19  64 W8        30.13R WCI  23
MCGREGOR       CLOUDY    30  23  74 W8        30.17R WCI  23
$$
MNZ071>073-080-081-089-090-097-098-240100-
   Southwest Minnesota

CITY           SKY/WX    TMP DP  RH WIND       PRES   REMARKS
MONTEVIDEO     MOCLDY    23  16  74 N6        30.30R WCI  16
GRANITE FALLS  CLEAR     15  13  90 W5        30.31R WCI   8
CANBY          CLEAR     21  16  83 SW6       30.30R WCI  13
MARSHALL       CLEAR     17  12  80 W10       30.29R WCI   5
REDWOOD FALLS  CLEAR     21  18  88 W7        30.29R WCI  12
OLIVIA         CLOUDY    21  19  93 W9        30.28R WCI  11
PIPESTONE      CLOUDY    18  16  93 W9        30.28R FOG     WCI   6
WORTHINGTON    MOCLDY    20  17  88 W10       30.28R WCI   9
JACKSON        PTCLDY    23  19  86 W7        30.28R WCI  15
TRACY          CLEAR     22  18  86 W6        30.28R WCI  14
SLAYTON        PTCLDY    20  18  91 W10       30.27R WCI   9
$$
MNZ065>067-074>077-082>085-091>093-240100-
   South Central Minnesota

CITY           SKY/WX    TMP DP  RH WIND       PRES   REMARKS
MANKATO        MOCLDY    22  19  89 W9        30.29R WCI  12
NEW ULM        CLEAR     18  14  86 W8        30.29R WCI   7
ST JAMES       CLEAR     21  18  86 W5        30.31R WCI  15
FAIRMONT       CLEAR     22  17  81 NW6       30.30R WCI  14
GLENCOE        FAIR      21  19  90 W7        30.27R WCI  13
FARIBAULT      FAIR      21  18  86 SW7       30.28R WCI  13
OWATONNA       FAIR      18  14  86 W7        30.27R FOG     WCI   8
WASECA         FAIR      18  14  86 W8        30.29R WCI   7
ALBERT LEA     FAIR      19  16  86 CALM      30.27S
$$
MNZ078>079-086>088-094>096-240100-
   Southeast Minnesota

CITY           SKY/WX    TMP DP  RH WIND       PRES   REMARKS
ROCHESTER      FAIR      18  17  96 W6        30.25R FOG     WCI  10
6HR MIN TEMP:  18; 6HR MAX TEMP:  23;

RED WING       FAIR      27  18  69 W8        30.27R WCI  18
STANTON        FAIR      23  18  83 W6        30.27R WCI  15
DODGE CENTER   FAIR      16  12  86 SW3       30.26R FOG
WINONA         MOCLDY    28  23  80 W6        30.27R WCI  22
AUSTIN         FAIR      21  18  86 W9        30.27R WCI  11
PRESTON        FAIR      21  18  87 W6        30.26R WCI  14
$$
ABBREVIATIONS USED IN REMARKS
   TC - TEMPERATURES IN CELSIUS
  WCI - WIND CHILL INDEX
   HX - HEAT INDEX
  VSB - VISIBILITY
$$




USA.gov is the U.S. government's official web portal to all federal, state and local government web resources and services.